Cloud_Cover
0 0 0 0 0 0 0 0 0 0 0 0 0 0 0 0 0 0 0 0 0 0 0 0 0 0 5 5 5 1 0 3 69 49 6 92 63 29 7 5 2 3 9
0 0 0 0 0 0 0 0 0 0 0 0 0 0 0 0 0 0 0 0 0 0 0 0 0 0 5 5 2 3 6 5 6 4 26 49 5 5 3 36 26 5 51
0 0 0 0 0 0 0 0 0 0 0 0 0 0 0 0 0 0 0 0 0 0 0 0 0 0 0 0 1 4 5 4 4 3 1 19 5 38 27 24 95 63 97
0 0 0 3 2 0 0 0 0 0 0 0 0 0 0 0 0 0 0 0 0 0 0 0 0 0 0 1 14 5 14 20 8 3 0 2 5 10 14 11 43 10 14
0 0 0 5 0 2 0 0 0 0 0 0 0 0 0 0 0 0 0 0 0 0 0 0 0 0 1 100 94 45 59 82 100 100 17 24 5 29 38 15 87 73 100
0 0 0 5 3 5 2 0 0 0 0 0 0 0 0 0 0 0 0 0 0 0 0 17 5 14 100 100 100 100 50 10 67 100 100 89 100 100 19 100 66 100 70
0 0 2 4 4 4 5 3 0 0 0 0 0 0 0 0 0 0 0 0 6 0 86 100 99 100 100 100 100 100 100 100 100 100 100 100 100 100 100 100 100 100 100
0 0 0 0 0 0 2 0 0 0 0 0 0 0 0 0 0 0 2 1 100 96 100 100 100 100 100 100 100 100 100 100 100 100 100 100 100 100 100 100 100 100 100
0 0 0 0 0 0 4 5 4 0 0 0 0 0 0 0 0 5 5 57 100 100 100 100 100 100 100 100 100 100 100 100 100 100 100 100 100 100 100 100 100 100 100
0 0 0 0 1 0 0 0 0 0 0 0 0 0 0 5 8 5 88 100 100 100 100 100 100 100 100 100 97 100 100 100 100 100 100 100 100 100 100 100 100 100 100
0 0 0 1 0 0 0 0 0 0 0 0 4 4 5 5 14 12 97 100 96 89 100 100 100 100 100 100 100 100 100 100 100 100 100 100 100 100 100 100 100 100 100
0 0 0 0 0 0 0 0 0 0 0 0 0 0 4 4 5 27 84 88 96 20 100 100 100 100 100 100 100 95 100 100 100 100 100 100 100 100 100 100 100 100 100
0 0 0 0 0 0 0 0 0 0 0 8 3 7 3 18 18 30 6 1 90 16 94 100 100 100 100 100 100 100 100 100 100 100 100 100 100 100 100 100 100 100 100
0 0 0 0 0 0 0 0 0 0 6 1 2 2 17 14 4 5 4 6 81 44 19 99 92 100 54 100 100 100 100 100 100 100 100 100 100 100 100 100 100 100 100
0 0 0 0 0 0 0 12 14 43 28 15 7 6 16 3 9 42 1 0 0 1 0 62 100 100 100 100 100 100 100 100 100 100 100 100 100 100 100 100 100 100 100
0 0 0 0 0 0 2 2 93 89 100 100 100 56 14 60 100 95 28 43 90 100 100 100 100 100 100 100 100 100 100 100 100 100 100 100 100 100 100 100 100 100 100
0 0 0 0 0 1 28 19 2 45 100 100 100 100 99 95 100 100 100 100 100 97 100 100 100 100 100 100 100 100 100 100 100 100 100 100 100 100 100 100 100 93 100
0 15 0 0 0 2 31 24 16 13 0 0 74 73 98 100 100 100 100 100 100 100 100 100 100 100 100 100 100 100 100 100 100 100 100 100 100 100 100 100 100 100 100
8 17 4 2 12 9 24 2 0 0 0 0 0 30 84 100 100 100 99 77 100 100 100 100 100 100 100 100 100 100 100 100 100 100 100 100 100 100 100 100 100 100 100
3 14 0 0 0 0 0 1 1 33 65 7 0 10 1 38 31 82 52 100 94 92 95 70 68 64 79 89 100 100 100 100 100 100 100 100 100 100 100 100 100 100 100
0 0 3 0 0 14 43 40 52 27 90 67 76 27 99 9 36 51 20 81 66 64 54 93 69 50 63 100 100 100 100 100 100 100 100 100 100 100 100 100 100 100 100
4 8 7 5 18 42 54 20 12 53 52 44 25 16 100 30 94 88 70 76 61 58 52 66 76 71 70 100 100 100 100 100 100 100 100 100 100 100 100 100 100 100 100
72 65 59 30 27 50 89 69 98 86 21 24 27 25 38 60 67 71 90 100 99 56 27 43 80 98 100 31 91 100 100 100 100 100 100 100 100 100 100 100 100 100 100
100 100 100 100 100 100 100 100 88 26 21 40 44 90 42 26 33 69 87 77 56 65 49 61 46 74 90 100 100 100 100 100 100 100 100 100 100 100 100 100 100 100 99
100 100 100 100 100 98 94 50 60 90 52 94 49 40 37 96 96 65 92 88 100 97 93 93 89 47 20 15 5 5 49 99 100 100 100 100 100 100 100 100 98 74 30
100 100 100 100 85 82 52 68 47 97 100 100 90 96 100 78 66 97 100 100 93 58 46 14 17 44 61 23 5 5 5 55 93 100 99 100 100 100 100 80 36 25 11